�������r�C�����j�^�v���󋵏��
Date,Time,5�C6���@���p�r�C��,����,����(m/s)
2023/11/03,00:00,3.7,��쓌,3.1
2023/11/03,00:10,3.7,��쓌,2.6
2023/11/03,00:20,3.7,��쓌,2.3
2023/11/03,00:30,3.7,��,1.9
2023/11/03,00:40,3.7,��쐼,1.5
2023/11/03,00:50,3.7,�쐼,3.8
2023/11/03,01:00,3.6,�쐼,4.4
2023/11/03,01:10,3.8,��쐼,4.5
2023/11/03,01:20,3.7,��쐼,4.4
2023/11/03,01:30,3.6,��쐼,4.0
2023/11/03,01:40,3.5,��쐼,3.5
2023/11/03,01:50,3.6,�쐼,3.4
2023/11/03,02:00,3.7,�쐼,3.6
2023/11/03,02:10,3.7,�쐼,3.8
2023/11/03,02:20,3.6,�쐼,4.3
2023/11/03,02:30,3.6,�쐼,3.8
2023/11/03,02:40,3.7,�쐼,3.9
2023/11/03,02:50,3.7,�쐼,3.1
2023/11/03,03:00,3.6,�쐼,3.7
2023/11/03,03:10,3.7,�쐼,2.9
2023/11/03,03:20,3.8,�쐼,2.8
2023/11/03,03:30,3.6,�쐼,2.2
2023/11/03,03:40,3.6,��쐼,2.6
2023/11/03,03:50,3.6,��,2.3
2023/11/03,04:00,3.7,��쓌,1.5
2023/11/03,04:10,3.6,�쓌,1.5
2023/11/03,04:20,3.6,�쓌,1.7
2023/11/03,04:30,3.6,���쓌,0.8
2023/11/03,04:40,3.7,-,CALM
2023/11/03,04:50,3.6,-,CALM
2023/11/03,05:00,3.7,���쐼,0.6
2023/11/03,05:10,3.8,�쐼,0.6
2023/11/03,05:20,3.6,�쐼,1.1
2023/11/03,05:30,3.8,�쐼,1.4
2023/11/03,05:40,3.6,��쐼,1.2
2023/11/03,05:50,3.6,��쐼,1.2
2023/11/03,06:00,3.5,��쐼,2.0
2023/11/03,06:10,3.5,��,2.0
2023/11/03,06:20,3.7,��쐼,2.3
2023/11/03,06:30,3.6,��,1.7
2023/11/03,06:40,3.6,��쐼,1.9
2023/11/03,06:50,3.7,��쐼,1.4
2023/11/03,07:00,3.6,��쓌,1.1
2023/11/03,07:10,3.7,��쐼,1.5
2023/11/03,07:20,3.6,��,1.2
2023/11/03,07:30,3.7,��,1.2
2023/11/03,07:40,3.7,��,0.6
2023/11/03,07:50,3.6,��,1.5
2023/11/03,08:00,3.6,��쐼,1.5
2023/11/03,08:10,3.7,��쐼,1.5
2023/11/03,08:20,3.6,��쐼,1.1
2023/11/03,08:30,3.6,��,1.2
2023/11/03,08:40,3.5,��,1.7
2023/11/03,08:50,3.7,��쓌,1.7
2023/11/03,09:00,3.7,��쓌,2.3
2023/11/03,09:10,3.6,��,2.6
2023/11/03,09:20,3.6,��,3.4
2023/11/03,09:30,3.7,��쓌,3.4
2023/11/03,09:40,3.7,��,3.7
2023/11/03,09:50,3.5,��,4.1
2023/11/03,10:00,3.7,��,3.7
2023/11/03,10:10,3.6,��,4.5
2023/11/03,10:20,3.7,��쓌,4.7
2023/11/03,10:30,3.6,��쓌,6.2
2023/11/03,10:40,3.6,��쓌,7.0
2023/11/03,10:50,3.7,��쓌,7.7
2023/11/03,11:00,3.7,��쓌,7.6
2023/11/03,11:10,3.6,��쓌,8.1
2023/11/03,11:20,3.6,��쓌,7.6
2023/11/03,11:30,3.7,��쓌,7.1
2023/11/03,11:40,3.6,��쓌,8.4
2023/11/03,11:50,3.6,��쓌,7.8
2023/11/03,12:00,3.8,��쓌,6.7
2023/11/03,12:10,3.6,��쓌,7.3
2023/11/03,12:20,3.7,��쓌,7.7
2023/11/03,12:30,3.8,��쓌,7.4
2023/11/03,12:40,3.5,��,7.9
2023/11/03,12:50,3.6,��쓌,8.9
2023/11/03,13:00,3.6,��쓌,7.2
2023/11/03,13:10,3.7,��쓌,8.9
2023/11/03,13:20,3.7,��,8.2
2023/11/03,13:30,3.8,��,8.3
2023/11/03,13:40,3.6,��,7.9
2023/11/03,13:50,3.8,��,8.1
2023/11/03,14:00,3.5,��,8.9
2023/11/03,14:10,3.8,��,8.5
2023/11/03,14:20,3.6,��,8.2
2023/11/03,14:30,3.7,��,9.1
2023/11/03,14:40,3.6,��,9.4
2023/11/03,14:50,3.7,��,9.9
2023/11/03,15:00,3.6,��,9.7
2023/11/03,15:10,3.7,��,9.0
2023/11/03,15:20,3.5,��,8.0
2023/11/03,15:30,3.5,��,7.4
2023/11/03,15:40,3.5,��,6.0
2023/11/03,15:50,3.6,��,6.0
2023/11/03,16:00,3.8,��,6.3
2023/11/03,16:10,3.8,��,6.5
2023/11/03,16:20,3.6,��,7.8
2023/11/03,16:30,3.6,��,8.5
2023/11/03,16:40,3.8,��,9.2
2023/11/03,16:50,3.8,��,8.1
2023/11/03,17:00,3.7,��,7.3
2023/11/03,17:10,3.8,��,6.8
2023/11/03,17:20,3.6,��,5.8
2023/11/03,17:30,3.5,��쐼,3.6
2023/11/03,17:40,3.6,��,3.9
2023/11/03,17:50,3.6,��,4.8
2023/11/03,18:00,3.6,��,4.6
2023/11/03,18:10,3.8,��,4.8
2023/11/03,18:20,3.5,��,4.6
2023/11/03,18:30,3.7,��,3.7
2023/11/03,18:40,3.5,��,3.5
2023/11/03,18:50,3.7,��,5.0
2023/11/03,19:00,3.7,��,5.5
2023/11/03,19:10,3.6,��,5.8
2023/11/03,19:20,3.6,��,5.3
2023/11/03,19:30,3.6,��,6.2
2023/11/03,19:40,3.7,��,6.1
2023/11/03,19:50,3.7,��,5.7
2023/11/03,20:00,3.6,��,6.4
2023/11/03,20:10,3.7,��,7.1
2023/11/03,20:20,3.7,��,6.6
2023/11/03,20:30,3.7,��,6.3
2023/11/03,20:40,3.7,��쐼,5.7
2023/11/03,20:50,3.7,��쐼,5.0
2023/11/03,21:00,3.8,��쐼,2.8
2023/11/03,21:10,3.5,��,1.5
2023/11/03,21:20,3.7,�k��,1.2
2023/11/03,21:30,3.4,-,CALM
2023/11/03,21:40,3.9,��쓌,1.4
2023/11/03,21:50,3.7,��,2.0
2023/11/03,22:00,3.7,�쐼,2.8
2023/11/03,22:10,4.0,���쐼,3.0
2023/11/03,22:20,3.7,���쐼,2.6
2023/11/03,22:30,3.7,�쐼,3.3
2023/11/03,22:40,3.6,�쐼,3.0
2023/11/03,22:50,3.6,�쐼,3.9
2023/11/03,23:00,3.6,��,2.6
2023/11/03,23:10,3.6,���k��,1.2
2023/11/03,23:20,3.8,-,CALM
2023/11/03,23:30,3.5,��,0.9
2023/11/03,23:40,3.7,��쐼,2.3
2023/11/03,23:50,3.6,��쐼,3.4
